Time,TemperatureF,DewpointF,PressureIn,WindDirection,WindDirectionDegrees,WindSpeedMPH,WindSpeedGustMPH,Humidity,HourlyPrecipIn,Conditions,Clouds,dailyrainin,SolarRadiationWatts/m^2,SoftwareType,DateUTC
2013-06-17 00:02:00,58.0,56.0,-100.00,ESE,123,2.0,7.0,92,0.00,,,0.08,0.000000,,2013-06-17 05:02:00,
2013-06-17 00:22:00,57.0,56.0,-100.00,NE,45,2.0,5.0,95,0.00,,,0.08,0.000000,,2013-06-17 05:22:00,
2013-06-17 00:33:00,57.0,56.0,-100.00,NE,45,2.0,5.0,95,0.00,,,0.08,0.000000,,2013-06-17 05:33:00,
2013-06-17 00:44:00,57.0,56.0,-100.00,NE,45,2.0,5.0,95,0.00,,,0.08,0.000000,,2013-06-17 05:44:00,
2013-06-17 00:53:00,57.0,56.0,-100.00,NE,45,2.0,5.0,95,0.00,,,0.08,0.000000,,2013-06-17 05:53:00,
2013-06-17 01:02:00,57.0,56.0,-100.00,NE,45,2.0,5.0,95,0.00,,,0.08,0.000000,,2013-06-17 06:02:00,
2013-06-17 01:22:00,54.0,53.0,-100.00,WNW,302,2.0,5.0,97,0.00,,,0.08,0.000000,,2013-06-17 06:22:00,
2013-06-17 01:33:00,54.0,53.0,-100.00,WNW,302,2.0,5.0,97,0.00,,,0.08,0.000000,,2013-06-17 06:33:00,
2013-06-17 01:43:00,54.0,53.0,-100.00,WNW,302,2.0,5.0,97,0.00,,,0.08,0.000000,,2013-06-17 06:43:00,
2013-06-17 01:53:00,54.0,53.0,-100.00,WNW,302,2.0,5.0,97,0.00,,,0.08,0.000000,,2013-06-17 06:53:00,
2013-06-17 02:02:00,54.0,53.0,-100.00,WNW,302,2.0,5.0,97,0.00,,,0.08,0.000000,,2013-06-17 07:02:00,
2013-06-17 02:22:00,56.0,55.0,-100.00,East,89,5.0,6.0,98,0.00,,,0.08,0.000000,,2013-06-17 07:22:00,
2013-06-17 02:33:00,56.0,55.0,-100.00,East,89,5.0,6.0,98,0.00,,,0.08,0.000000,,2013-06-17 07:33:00,
2013-06-17 02:43:00,56.0,55.0,-100.00,East,89,5.0,6.0,98,0.00,,,0.08,0.000000,,2013-06-17 07:43:00,
2013-06-17 02:53:00,56.0,55.0,-100.00,East,89,5.0,6.0,98,0.00,,,0.08,0.000000,,2013-06-17 07:53:00,
2013-06-17 03:02:00,56.0,55.0,-100.00,East,89,5.0,6.0,98,0.00,,,0.08,0.000000,,2013-06-17 08:02:00,
2013-06-17 03:22:00,55.0,53.0,-100.00,ESE,110,6.0,9.0,94,0.00,,,0.08,0.000000,,2013-06-17 08:22:00,
2013-06-17 03:34:00,55.0,53.0,-100.00,ESE,110,6.0,9.0,94,0.00,,,0.08,0.000000,,2013-06-17 08:34:00,
2013-06-17 03:43:00,55.0,53.0,-100.00,ESE,110,6.0,9.0,94,0.00,,,0.08,0.000000,,2013-06-17 08:43:00,
2013-06-17 03:53:00,55.0,53.0,-100.00,ESE,110,6.0,9.0,94,0.00,,,0.08,0.000000,,2013-06-17 08:53:00,
2013-06-17 04:02:00,55.0,53.0,-100.00,ESE,110,6.0,9.0,94,0.00,,,0.08,0.000000,,2013-06-17 09:02:00,
2013-06-17 04:22:00,54.0,52.0,-100.00,SE,140,9.0,16.0,93,0.00,,,0.08,0.000000,,2013-06-17 09:22:00,
2013-06-17 04:34:00,54.0,52.0,-100.00,SE,140,9.0,16.0,93,0.00,,,0.08,0.000000,,2013-06-17 09:34:00,
2013-06-17 04:44:00,54.0,52.0,-100.00,SE,140,9.0,16.0,93,0.00,,,0.08,0.000000,,2013-06-17 09:44:00,
2013-06-17 04:53:00,54.0,52.0,-100.00,SE,140,9.0,16.0,93,0.00,,,0.08,0.000000,,2013-06-17 09:53:00,
2013-06-17 05:02:00,54.0,52.0,-100.00,SE,140,9.0,16.0,93,0.00,,,0.08,0.000000,,2013-06-17 10:02:00,
2013-06-17 05:22:00,50.0,48.0,-100.00,SE,127,10.0,17.0,92,0.00,,,0.08,0.000000,,2013-06-17 10:22:00,
2013-06-17 05:33:00,50.0,48.0,-100.00,SE,127,10.0,17.0,92,0.00,,,0.08,0.000000,,2013-06-17 10:33:00,
2013-06-17 05:43:00,50.0,48.0,-100.00,SE,127,10.0,17.0,92,0.00,,,0.08,0.000000,,2013-06-17 10:43:00,
2013-06-17 05:54:00,50.0,48.0,-100.00,SE,127,10.0,17.0,92,0.00,,,0.08,0.000000,,2013-06-17 10:54:00,
2013-06-17 06:02:00,50.0,48.0,-100.00,SE,127,10.0,17.0,92,0.00,,,0.08,0.000000,,2013-06-17 11:02:00,
2013-06-17 06:23:00,49.0,46.0,-100.00,ESE,109,7.0,11.0,91,0.00,,,0.08,14.000000,,2013-06-17 11:23:00,
2013-06-17 06:33:00,49.0,46.0,-100.00,ESE,109,7.0,11.0,91,0.00,,,0.08,14.000000,,2013-06-17 11:33:00,
2013-06-17 06:43:00,49.0,46.0,-100.00,ESE,109,7.0,11.0,91,0.00,,,0.08,14.000000,,2013-06-17 11:43:00,
2013-06-17 06:53:00,49.0,46.0,-100.00,ESE,109,7.0,11.0,91,0.00,,,0.08,14.000000,,2013-06-17 11:53:00,
2013-06-17 07:02:00,49.0,46.0,-100.00,ESE,109,7.0,11.0,91,0.00,,,0.08,14.000000,,2013-06-17 12:02:00,
2013-06-17 07:23:00,48.0,44.0,-100.00,SE,134,8.0,13.0,86,0.00,,,0.08,48.000000,,2013-06-17 12:23:00,
2013-06-17 07:33:00,48.0,44.0,-100.00,SE,134,8.0,13.0,86,0.00,,,0.08,48.000000,,2013-06-17 12:33:00,
2013-06-17 07:43:00,48.0,44.0,-100.00,SE,134,8.0,13.0,86,0.00,,,0.08,48.000000,,2013-06-17 12:43:00,
2013-06-17 07:53:00,48.0,44.0,-100.00,SE,134,8.0,13.0,86,0.00,,,0.08,48.000000,,2013-06-17 12:53:00,
2013-06-17 08:01:00,48.0,44.0,-100.00,SE,134,8.0,13.0,86,0.00,,,0.08,48.000000,,2013-06-17 13:01:00,
2013-06-17 08:22:00,49.0,44.0,-100.00,ESE,106,5.0,12.0,84,0.00,,,0.08,75.000000,,2013-06-17 13:22:00,
2013-06-17 08:33:00,49.0,44.0,-100.00,ESE,106,5.0,12.0,84,0.00,,,0.08,75.000000,,2013-06-17 13:33:00,
2013-06-17 08:43:00,49.0,44.0,-100.00,ESE,106,5.0,12.0,84,0.00,,,0.08,75.000000,,2013-06-17 13:43:00,
2013-06-17 08:53:00,49.0,44.0,-100.00,ESE,106,5.0,12.0,84,0.00,,,0.08,75.000000,,2013-06-17 13:53:00,
2013-06-17 09:02:00,49.0,44.0,-100.00,ESE,106,5.0,12.0,84,0.00,,,0.08,75.000000,,2013-06-17 14:02:00,
2013-06-17 09:22:00,48.0,46.0,-100.00,NE,44,4.0,9.0,93,0.12,,,0.20,76.000000,,2013-06-17 14:22:00,
2013-06-17 09:34:00,48.0,46.0,-100.00,NE,44,4.0,9.0,93,0.12,,,0.20,76.000000,,2013-06-17 14:34:00,
2013-06-17 09:44:00,48.0,46.0,-100.00,NE,44,4.0,9.0,93,0.12,,,0.20,76.000000,,2013-06-17 14:44:00,
2013-06-17 09:53:00,48.0,46.0,-100.00,NE,44,4.0,9.0,93,0.12,,,0.20,76.000000,,2013-06-17 14:53:00,
2013-06-17 10:02:00,48.0,46.0,-100.00,NE,44,4.0,9.0,93,0.12,,,0.20,76.000000,,2013-06-17 15:02:00,
2013-06-17 10:22:00,49.0,46.0,-100.00,East,101,9.0,15.0,91,0.01,,,0.21,165.000000,,2013-06-17 15:22:00,
2013-06-17 10:33:00,49.0,46.0,-100.00,East,101,9.0,15.0,91,0.01,,,0.21,165.000000,,2013-06-17 15:33:00,
2013-06-17 10:43:00,49.0,46.0,-100.00,East,101,9.0,15.0,91,0.01,,,0.21,165.000000,,2013-06-17 15:43:00,
2013-06-17 10:53:00,49.0,46.0,-100.00,East,101,9.0,15.0,91,0.01,,,0.21,165.000000,,2013-06-17 15:53:00,
2013-06-17 11:02:00,49.0,46.0,-100.00,East,101,9.0,15.0,91,0.01,,,0.21,165.000000,,2013-06-17 16:02:00,
2013-06-17 11:22:00,49.0,46.0,-100.00,ESE,115,6.0,14.0,88,0.00,,,0.21,136.000000,,2013-06-17 16:22:00,
2013-06-17 11:33:00,49.0,46.0,-100.00,ESE,115,6.0,14.0,88,0.00,,,0.21,136.000000,,2013-06-17 16:33:00,
2013-06-17 11:43:00,49.0,46.0,-100.00,ESE,115,6.0,14.0,88,0.00,,,0.21,136.000000,,2013-06-17 16:43:00,
2013-06-17 11:54:00,49.0,46.0,-100.00,ESE,115,6.0,14.0,88,0.00,,,0.21,136.000000,,2013-06-17 16:54:00,
2013-06-17 12:02:00,49.0,46.0,-100.00,ESE,115,6.0,14.0,88,0.00,,,0.21,136.000000,,2013-06-17 17:02:00,
2013-06-17 12:22:00,49.0,45.0,-100.00,ESE,109,6.0,10.0,87,0.02,,,0.23,168.000000,,2013-06-17 17:22:00,
2013-06-17 12:33:00,49.0,45.0,-100.00,ESE,109,6.0,10.0,87,0.02,,,0.23,168.000000,,2013-06-17 17:33:00,
2013-06-17 12:43:00,49.0,45.0,-100.00,ESE,109,6.0,10.0,87,0.02,,,0.23,168.000000,,2013-06-17 17:43:00,
2013-06-17 12:52:00,49.0,45.0,-100.00,ESE,109,6.0,10.0,87,0.02,,,0.23,168.000000,,2013-06-17 17:52:00,
2013-06-17 13:02:00,49.0,45.0,-100.00,ESE,109,6.0,10.0,87,0.02,,,0.23,168.000000,,2013-06-17 18:02:00,
2013-06-17 13:23:00,52.0,47.0,-100.00,SE,132,8.0,11.0,82,0.00,,,-99.99,330.000000,,2013-06-17 18:23:00,
2013-06-17 13:33:00,52.0,47.0,-100.00,SE,132,8.0,11.0,82,0.00,,,-99.99,330.000000,,2013-06-17 18:33:00,
2013-06-17 13:43:00,52.0,47.0,-100.00,SE,132,8.0,11.0,82,0.00,,,-99.99,330.000000,,2013-06-17 18:43:00,
2013-06-17 13:53:00,52.0,47.0,-100.00,SE,132,8.0,11.0,82,0.00,,,-99.99,330.000000,,2013-06-17 18:53:00,
2013-06-17 14:02:00,52.0,47.0,-100.00,SE,132,8.0,11.0,82,0.00,,,-99.99,330.000000,,2013-06-17 19:02:00,
2013-06-17 14:22:00,55.0,48.0,-100.00,East,91,4.0,12.0,76,0.00,,,0.22,547.000000,,2013-06-17 19:22:00,
2013-06-17 14:33:00,55.0,48.0,-100.00,East,91,4.0,12.0,76,0.00,,,0.22,547.000000,,2013-06-17 19:33:00,
2013-06-17 14:43:00,55.0,48.0,-100.00,East,91,4.0,12.0,76,0.00,,,0.22,547.000000,,2013-06-17 19:43:00,
2013-06-17 14:54:00,55.0,48.0,-100.00,East,91,4.0,12.0,76,0.00,,,0.22,547.000000,,2013-06-17 19:54:00,
2013-06-17 15:02:00,55.0,48.0,-100.00,East,91,4.0,12.0,76,0.00,,,0.22,547.000000,,2013-06-17 20:02:00,
2013-06-17 15:22:00,55.0,48.0,-100.00,SE,129,4.0,10.0,77,0.00,,,0.21,347.000000,,2013-06-17 20:22:00,
2013-06-17 15:34:00,55.0,48.0,-100.00,SE,129,4.0,10.0,77,0.00,,,0.21,347.000000,,2013-06-17 20:34:00,
2013-06-17 15:43:00,55.0,48.0,-100.00,SE,129,4.0,10.0,77,0.00,,,0.21,347.000000,,2013-06-17 20:43:00,
2013-06-17 15:52:00,55.0,48.0,-100.00,SE,129,4.0,10.0,77,0.00,,,0.21,347.000000,,2013-06-17 20:52:00,
2013-06-17 16:01:00,55.0,48.0,-100.00,SE,129,4.0,10.0,77,0.00,,,0.21,347.000000,,2013-06-17 21:01:00,
2013-06-17 17:53:00,61.0,50.0,-100.00,NE,56,3.0,7.0,68,0.00,,,0.21,512.000000,,2013-06-17 22:53:00,
2013-06-17 18:02:00,61.0,50.0,-100.00,NE,56,3.0,7.0,68,0.00,,,0.21,512.000000,,2013-06-17 23:02:00,
2013-06-17 18:22:00,62.0,48.0,-100.00,NNE,31,6.0,9.0,60,0.00,,,0.16,550.000000,,2013-06-17 23:22:00,
2013-06-17 18:33:00,62.0,48.0,-100.00,NNE,31,6.0,9.0,60,0.00,,,0.16,550.000000,,2013-06-17 23:33:00,
2013-06-17 18:43:00,62.0,48.0,-100.00,NNE,31,6.0,9.0,60,0.00,,,0.16,550.000000,,2013-06-17 23:43:00,
2013-06-17 18:53:00,62.0,48.0,-100.00,NNE,31,6.0,9.0,60,0.00,,,0.16,550.000000,,2013-06-17 23:53:00,
2013-06-17 19:01:00,62.0,48.0,-100.00,NNE,31,6.0,9.0,60,0.00,,,0.16,550.000000,,2013-06-18 00:01:00,
2013-06-17 19:22:00,63.0,48.0,-100.00,East,82,4.0,7.0,58,0.00,,,0.15,409.000000,,2013-06-18 00:22:00,
2013-06-17 19:33:00,63.0,48.0,-100.00,East,82,4.0,7.0,58,0.00,,,0.15,409.000000,,2013-06-18 00:33:00,
2013-06-17 19:43:00,63.0,48.0,-100.00,East,82,4.0,7.0,58,0.00,,,0.15,409.000000,,2013-06-18 00:43:00,
2013-06-17 19:52:00,63.0,48.0,-100.00,East,82,4.0,7.0,58,0.00,,,0.15,409.000000,,2013-06-18 00:52:00,
2013-06-17 20:01:00,63.0,48.0,-100.00,East,82,4.0,7.0,58,0.00,,,0.15,409.000000,,2013-06-18 01:01:00,
2013-06-17 20:23:00,63.0,49.0,-100.00,NE,46,3.0,7.0,60,0.00,,,0.15,204.000000,,2013-06-18 01:23:00,
2013-06-17 20:34:00,63.0,49.0,-100.00,NE,46,3.0,7.0,60,0.00,,,0.15,204.000000,,2013-06-18 01:34:00,
2013-06-17 20:44:00,63.0,49.0,-100.00,NE,46,3.0,7.0,60,0.00,,,0.15,204.000000,,2013-06-18 01:44:00,
2013-06-17 20:53:00,63.0,49.0,-100.00,NE,46,3.0,7.0,60,0.00,,,0.15,204.000000,,2013-06-18 01:53:00,
2013-06-17 21:02:00,63.0,49.0,-100.00,NE,46,3.0,7.0,60,0.00,,,0.15,204.000000,,2013-06-18 02:02:00,
2013-06-17 21:23:00,57.0,48.0,-100.00,South,174,2.0,5.0,73,0.00,,,0.15,57.000000,,2013-06-18 02:23:00,
2013-06-17 21:34:00,57.0,48.0,-100.00,South,174,2.0,5.0,73,0.00,,,0.15,57.000000,,2013-06-18 02:34:00,
2013-06-17 21:43:00,57.0,48.0,-100.00,South,174,2.0,5.0,73,0.00,,,0.15,57.000000,,2013-06-18 02:43:00,
2013-06-17 21:53:00,57.0,48.0,-100.00,South,174,2.0,5.0,73,0.00,,,0.15,57.000000,,2013-06-18 02:53:00,
2013-06-17 22:02:00,57.0,48.0,-100.00,South,174,2.0,5.0,73,0.00,,,0.15,57.000000,,2013-06-18 03:02:00,
2013-06-17 22:23:00,51.0,48.0,-100.00,South,179,4.0,6.0,91,0.00,,,0.15,1.000000,,2013-06-18 03:23:00,
2013-06-17 22:34:00,51.0,48.0,-100.00,South,179,4.0,6.0,91,0.00,,,0.15,1.000000,,2013-06-18 03:34:00,
2013-06-17 22:43:00,51.0,48.0,-100.00,South,179,4.0,6.0,91,0.00,,,0.15,1.000000,,2013-06-18 03:43:00,
2013-06-17 22:53:00,51.0,48.0,-100.00,South,179,4.0,6.0,91,0.00,,,0.15,1.000000,,2013-06-18 03:53:00,
2013-06-17 23:02:00,51.0,48.0,-100.00,South,179,4.0,6.0,91,0.00,,,0.15,1.000000,,2013-06-18 04:02:00,
2013-06-17 23:23:00,49.0,43.0,-100.00,SSE,168,3.0,9.0,81,0.00,,,0.15,0.000000,,2013-06-18 04:23:00,
2013-06-17 23:34:00,49.0,43.0,-100.00,SSE,168,3.0,9.0,81,0.00,,,0.15,0.000000,,2013-06-18 04:34:00,
2013-06-17 23:43:00,49.0,43.0,-100.00,SSE,168,3.0,9.0,81,0.00,,,0.15,0.000000,,2013-06-18 04:43:00,
2013-06-17 23:54:00,49.0,43.0,-100.00,SSE,168,3.0,9.0,81,0.00,,,0.15,0.000000,,2013-06-18 04:54:00,